Location: Britsum
(53.2530°N, 5.7847°E)
Time: 21:40:42
(UTC+00:00)

Daily predictions for brighter satellites

Satellite Brightness Start Highest point End
(mag) Time Altitude Azimuth Time Altitude Azimuth Time Altitude Azimuth
Cosmos 2297 Rocket 3.6 20:55:03 10° SSE 20:59:03 20° E 21:03:04 10° NE
Cosmos 1908 Rocket 3.5 20:57:39 10° N 21:02:01 79° ENE 21:06:19 10° SSE
Cosmos 2219 Rocket 3.2 20:59:34 10° NW 21:04:53 42° WSW 21:10:11 10° S
MOS 1 Rocket 3.8 21:00:17 10° S 21:05:35 69° WSW 21:10:42 10° NNW
Cosmos 1782 Rocket 4.0 21:01:32 10° N 21:05:45 48° ENE 21:09:57 10° SSE
ATLAS CENTAUR R/B 3.1 21:06:27 10° W 21:09:43 33° NNW 21:13:08 10° NE
ERS-1 Rocket 3.9 21:05:42 10° S 21:10:32 46° W 21:15:23 10° NNW
Cosmos 1570 Rocket 4.3 21:05:51 10° NNW 21:11:11 68° WSW 21:16:29 10° SSE
Cosmos 371 Rocket 4.3 21:07:22 10° SSE 21:11:25 28° ESE 21:15:30 10° NE
USA 281 4.0 21:05:18 10° ESE 21:11:29 46° NE 21:17:41 10° NNW
Cosmos 773 Rocket 4.3 21:06:36 10° NNW 21:11:42 57° ENE 21:16:48 10° SE
Cosmos 1300 Rocket 4.0 21:08:38 10° N 21:12:50 48° ENE 21:17:02 10° SSE
Terra 2.6 21:09:17 10° S 21:13:50 48° W 21:18:25 10° NNW
MetOp-A 4.1 21:10:51 10° SSE 21:16:06 77° ENE 21:21:15 10° NNW
Meteor 1-4 Rocket 3.4 21:19:04 10° SW 21:21:56 41° WNW 21:24:51 10° N
Spot 1 4.5 21:17:25 10° NNE 21:22:03 58° ESE 21:26:53 10° S
GP-B 3.5 21:18:51 10° N 21:23:08 48° E 21:27:24 10° SSE
ARIANE 5 R/B 3.5 21:20:08 10° SE 21:24:08 37° ENE 21:28:11 10° N
NOSS 0 Rocket 4.1 21:23:03 10° NW 21:29:18 74° WSW 21:35:24 11° SSE
Cosmos 2084 Rocket 4.4 21:27:19 10° S 21:30:56 27° SE 21:34:27 10° ENE
COSMOS 2428 3.3 21:25:58 10° NW 21:31:30 52° WSW 21:37:00 10° S
Cosmos 1953 3.2 21:27:55 10° NNW 21:31:35 43° W 21:35:11 10° SSW
Cosmos 1455 3.0 21:29:55 10° NNW 21:33:15 41° W 21:36:34 10° SSW
Cosmos 2360 Rocket 4.5 21:30:09 10° WNW 21:33:17 15° W 21:36:26 10° SW
CZ-4C R/B 2.3 21:31:12 10° SSW 21:35:33 44° ESE 21:40:59 10° NE
BREEZE-M DEB (TANK) 4.1 21:17:20 10° W 21:35:49 69° S 21:40:19 10° E
SJ 16-02 2.8 21:31:50 10° SW 21:35:54 39° WNW 21:40:00 10° NNE
SPOT 3 Rocket 4.5 21:31:37 10° S 21:36:32 44° W 21:41:30 10° NNW
NOSS 8 (A) 4.4 21:34:04 10° NW 21:36:55 66° NE 21:40:14 10° SE
BREEZE-M DEB (TANK) 4.3 21:39:50 14° SSE 21:40:23 14° SE 21:42:16 10° ESE
Cosmos 1745 Rocket 4.1 21:34:43 10° S 21:41:00 67° E 21:47:20 10° NNE
Nadezhda 1 Rocket 4.1 21:35:59 10° NNW 21:42:18 85° W 21:48:28 10° S
Cosmos 304 Rocket 4.3 21:38:46 10° S 21:43:13 42° ESE 21:47:42 10° NE
Cosmos 1703 Rocket 3.8 21:42:57 10° SSW 21:47:23 71° WNW 21:51:51 10° N
Cosmos 1242 Rocket 2.9 21:45:45 10° SSW 21:48:22 44° WNW 21:51:01 10° N
Okean 1-7 4.0 21:45:29 10° SSW 21:49:38 46° WNW 21:53:48 10° N
Cosmos 1503 Rocket 4.5 21:45:07 10° S 21:50:07 44° ESE 21:55:06 10° NE
Cosmos 1315 Rocket 4.2 21:47:27 10° SW 21:51:12 39° WNW 21:54:59 10° N
Cosmos 1825 4.2 21:50:09 10° ESE 21:51:42 13° E 21:53:15 10° ENE
Cosmos 2098 Rocket 4.3 21:47:35 10° N 21:54:07 59° ENE 21:59:29 13° SSE
Okean 2 Rocket 4.2 21:51:39 10° N 21:55:47 35° ENE 21:59:32 12° SE
Landsat 5 3.7 21:52:50 10° NNE 21:56:55 72° WNW 22:01:08 10° SSW
SeaSat 1 3.9 21:53:18 10° S 21:57:31 29° WSW 22:01:47 10° NW
H-2A R/B 3.2 21:56:48 13° SE 22:00:24 45° ENE 22:04:24 10° N
CZ-2C R/B 3.9 21:57:03 10° NNE 22:01:24 51° E 22:05:09 14° S
COSMOS 2455 2.8 21:55:27 10° SSW 22:01:27 75° SE 22:07:30 10° NE
Cosmos 1892 4.3 22:01:06 12° SE 22:03:07 19° E 22:05:39 10° NE
NOSS 8 (E) 4.4 22:01:00 10° SW 22:04:40 79° NW 22:07:40 10° NE
Cosmos 1408 2.0 22:02:06 13° SSW 22:04:42 86° WNW 22:07:42 10° N
Cosmos 1174 4.4 22:00:39 10° NW 22:05:35 56° WSW 22:08:42 16° SSE
Cosmos 405 Rocket 2.8 22:03:18 10° N 22:07:05 63° ENE 22:09:55 16° SSE
ALOS 2 3.6 22:04:51 12° SE 22:08:36 37° ENE 22:12:40 10° N
SL-4 R/B 3.9 22:06:32 10° WSW 22:08:49 15° SW 22:10:36 12° S
Cosmos 2181 Rocket 4.3 22:03:00 10° N 22:09:06 58° ENE 22:14:19 14° SSE
SL-16 R/B 2.7 22:07:16 10° NNW 22:12:55 58° NE 22:18:24 11° SE
BlueWalker 3 1.8 22:10:33 10° WSW 22:14:18 84° S 22:18:04 10° E
Cosmos 2237 Rocket 2.5 22:09:35 10° NW 22:15:09 57° WSW 22:19:45 15° S
Cosmos 1486 Rocket 4.0 22:10:22 10° SSW 22:15:34 86° WNW 22:20:51 10° NNE
Meteor 2-5 Rocket 3.9 22:11:13 13° S 22:16:23 63° E 22:22:05 10° NNE
CENTAUR R/B 3.2 22:11:56 13° S 22:16:25 34° ESE 22:22:36 10° NE
Spot 4 4.0 22:17:54 15° SSE 22:21:49 67° ENE 22:26:38 10° N
Cosmos 2227 Rocket 2.7 22:18:49 14° S 22:23:20 43° ESE 22:28:40 10° NE
Cosmos 2221 Rocket 4.4 22:25:50 17° SSE 22:28:50 38° E 22:32:57 10° NNE
Cosmos 1980 4.4 22:24:02 10° NW 22:29:24 44° WSW 22:33:48 15° S
H-2A R/B 4.2 22:28:56 10° ENE 22:31:04 14° E 22:33:09 10° ESE
Sich 1 Rocket 3.7 22:27:21 10° N 22:31:45 69° ENE 22:34:57 18° SSE
USA 234 3.2 22:25:43 10° ENE 22:32:16 70° SSE 22:38:47 10° SW
Cosmos 2242 Rocket 4.1 22:31:20 10° SSW 22:35:49 62° WNW 22:40:22 10° N
Cosmos 1354 Rocket 4.0 22:31:07 12° SSW 22:36:06 74° ESE 22:41:25 10° NNE
Okean 1 Rocket 3.5 22:33:26 10° N 22:37:45 54° ENE 22:40:58 17° SSE
Cosmos 1709 Rocket 4.2 22:33:30 10° SSW 22:39:52 73° WNW 22:46:13 10° N
Cosmos 2297 Rocket 2.2 22:36:44 10° SSW 22:42:23 86° WNW 22:48:06 10° NNE
Cosmos 1461 4.5 22:43:12 15° SE 22:44:13 17° ESE 22:46:42 10° ENE
Nadezhda 3 Rocket 4.4 22:40:40 10° N 22:46:49 54° ENE 22:51:56 15° SSE
NOSS 3 (A) 4.0 22:46:57 26° W 22:47:34 45° NW 22:49:10 10° NE
Cosmos 990 Rocket 4.4 22:45:54 18° S 22:49:26 46° ESE 22:54:20 10° NE
Cosmos 371 Rocket 4.1 22:46:48 10° SW 22:51:30 51° WNW 22:56:14 10° NNE
Cosmos 2219 3.7 22:51:47 18° S 22:55:38 43° ESE 23:00:55 10° NE
PSLV R/B 4.1 22:51:56 10° N 22:55:54 66° WNW 22:59:12 14° SSW
USA 281 3.6 22:50:46 16° S 22:55:55 54° WSW 23:02:23 10° NW
Cosmos 1680 Rocket 4.5 22:51:04 10° NNW 22:56:01 42° NE 23:00:58 10° SE
Meteor 1-24 Rocket 3.9 22:52:46 12° SSW 22:58:06 69° WNW 23:03:36 10° N
Cosmos 1703 4.2 22:55:32 11° SW 22:58:49 40° WNW 23:02:19 10° N
ARIANE 5 R/B 3.9 22:57:21 14° SSW 23:00:35 31° W 23:04:31 10° NNW
Orbus 7S? 2.7 23:00:04 10° WNW 23:02:53 70° NNE 23:05:44 10° ESE
Cosmos 1025 Rocket 3.8 23:00:15 19° SSE 23:02:56 39° E 23:06:55 10° NNE
Cosmos 2263 Rocket 2.9 23:01:08 18° SSE 23:04:38 37° ESE 23:09:42 10° NE
Cosmos 2184 Rocket 4.2 22:59:57 17° S 23:04:54 68° E 23:11:15 10° NNE
Cosmos 1455 Rocket 3.7 23:03:39 10° N 23:08:00 49° ENE 23:11:17 16° SE
Cosmos 2084 Rocket 3.8 23:05:34 10° WSW 23:09:47 63° NW 23:13:51 10° NE
Cosmos 1378 Rocket 3.8 23:10:39 16° SSW 23:14:03 66° WNW 23:18:28 10° N
Cosmos 1674 Rocket 3.7 23:14:09 18° SSW 23:17:21 71° WNW 23:21:41 10° N
Cosmos 292 Rocket 4.1 23:17:32 20° S 23:20:37 50° ESE 23:25:18 10° NE
NOSS 3-2 (A) 3.5 23:18:38 17° SSW 23:22:42 54° SE 23:28:51 10° NE
Cosmos 2154 Rocket 4.1 23:18:32 18° S 23:23:20 75° E 23:29:40 10° NNE
CZ-4C R/B 3.0 23:19:00 10° WSW 23:23:51 53° NNW 23:30:04 10° NE
Cosmos 1825 2.3 23:23:13 20° SSW 23:25:24 58° WNW 23:28:48 10° N
PSLV R/B 3.6 23:23:58 10° NNE 23:28:09 66° ESE 23:30:49 21° S
Cosmos 1818 3.7 23:27:00 10° NW 23:32:24 58° SW 23:36:27 18° SSE
NOSS 3-2 (C) 4.1 23:30:22 19° SSE 23:33:29 33° ESE 23:38:56 10° ENE
Okean 2 Rocket 4.3 23:29:45 10° NNW 23:33:46 33° W 23:36:50 15° SSW
H-2A R/B 4.0 23:32:47 14° SW 23:35:30 25° W 23:38:59 10° NW
Cosmos 1892 3.5 23:34:58 16° SW 23:37:28 39° WNW 23:40:49 10° N
Meteor 1-21 Rocket 4.3 23:34:06 19° S 23:38:16 70° E 23:43:52 10° NNE
Cosmos 1328 4.0 23:41:31 20° SSW 23:44:04 64° WNW 23:47:57 10° N
Cosmos 1607 4.4 23:37:55 10° NW 23:44:23 68° NE 23:50:41 10° ESE
ALOS 2 3.8 23:42:15 17° SSW 23:45:00 32° W 23:48:58 10° NNW
Cosmos 1869 3.8 23:42:56 10° N 23:46:33 47° ENE 23:49:12 17° SE
COSMOS 2455 4.4 23:42:21 10° W 23:47:55 37° NNW 23:53:30 10° NE
Meteor 2-11 Rocket 4.5 23:45:25 18° SSW 23:50:08 84° W 23:56:18 10° N
Aureole 1 Rocket 3.1 23:48:39 20° SSW 23:51:31 87° ESE 23:56:49 10° NNE
Cosmos 1937 Rocket 3.8 23:48:31 19° S 23:52:04 54° ESE 23:57:10 10° NNE
BlueWalker 3 1.7 23:48:44 10° W 23:52:29 82° S 23:56:14 10° ESE
Cosmos 2237 Rocket 4.4 23:56:39 10° W 23:57:58 11° W 23:59:17 10° WSW
